Year,Month,Day,Hour,Minute,Value (Times are PST for temperature in C)
2016,08,20,00,00,22.20
2016,08,20,00,01,22.30
2016,08,20,00,02,22.30
2016,08,20,00,03,22.30
2016,08,20,00,04,22.30
2016,08,20,00,05,22.30
2016,08,20,00,06,22.30
2016,08,20,00,07,22.30
2016,08,20,00,08,22.30
2016,08,20,00,09,22.20
2016,08,20,00,10,22.20
2016,08,20,00,11,22.10
2016,08,20,00,12,22.10
2016,08,20,00,13,22.10
2016,08,20,00,14,22.10
2016,08,20,00,15,22.00
2016,08,20,00,16,22.00
2016,08,20,00,17,22.00
2016,08,20,00,18,22.00
2016,08,20,00,19,22.00
2016,08,20,00,20,22.00
2016,08,20,00,21,22.00
2016,08,20,00,22,22.00
2016,08,20,00,23,22.00
2016,08,20,00,24,22.00
2016,08,20,00,25,22.00
2016,08,20,00,26,22.00
2016,08,20,00,27,22.00
2016,08,20,00,28,22.00
2016,08,20,00,29,22.00
2016,08,20,00,30,21.90
2016,08,20,00,31,21.80
2016,08,20,00,32,21.70
2016,08,20,00,33,21.60
2016,08,20,00,34,21.50
2016,08,20,00,35,21.50
2016,08,20,00,36,21.40
2016,08,20,00,37,21.30
2016,08,20,00,38,21.20
2016,08,20,00,39,21.20
2016,08,20,00,40,21.10
2016,08,20,00,41,21.00
2016,08,20,00,42,21.00
2016,08,20,00,43,20.90
2016,08,20,00,44,20.80
2016,08,20,00,45,20.80
2016,08,20,00,46,20.80
2016,08,20,00,47,20.70
2016,08,20,00,48,20.60
2016,08,20,00,49,20.60
2016,08,20,00,50,20.60
2016,08,20,00,51,20.50
2016,08,20,00,52,20.50
2016,08,20,00,53,20.50
2016,08,20,00,54,20.50
2016,08,20,00,55,20.50
2016,08,20,00,56,20.50
2016,08,20,00,57,20.50
2016,08,20,00,58,20.50
2016,08,20,00,59,20.60
2016,08,20,01,00,20.60
2016,08,20,01,01,20.60
2016,08,20,01,02,20.70
2016,08,20,01,03,20.70
2016,08,20,01,04,20.80
2016,08,20,01,05,20.80
2016,08,20,01,06,20.90
2016,08,20,01,07,20.90
2016,08,20,01,08,21.00
2016,08,20,01,09,21.10
2016,08,20,01,10,21.10
2016,08,20,01,11,21.10
2016,08,20,01,12,21.10
2016,08,20,01,13,21.10
2016,08,20,01,14,21.00
2016,08,20,01,15,21.00
2016,08,20,01,16,20.90
2016,08,20,01,17,20.90
2016,08,20,01,18,20.80
2016,08,20,01,19,20.80
2016,08,20,01,20,20.70
2016,08,20,01,21,20.50
2016,08,20,01,22,20.50
2016,08,20,01,23,20.40
2016,08,20,01,24,20.30
2016,08,20,01,25,20.30
2016,08,20,01,26,20.20
2016,08,20,01,27,20.20
2016,08,20,01,28,20.20
2016,08,20,01,29,20.20
2016,08,20,01,30,20.20
2016,08,20,01,31,20.20
2016,08,20,01,32,20.20
2016,08,20,01,33,20.20
2016,08,20,01,34,20.20
2016,08,20,01,35,20.20
2016,08,20,01,36,20.20
2016,08,20,01,37,20.10
2016,08,20,01,38,20.10
2016,08,20,01,39,20.10
2016,08,20,01,40,20.10
2016,08,20,01,41,20.00
2016,08,20,01,42,20.00
2016,08,20,01,43,20.00
2016,08,20,01,44,20.00
2016,08,20,01,45,20.10
2016,08,20,01,46,20.10
2016,08,20,01,47,20.10
2016,08,20,01,48,20.10
2016,08,20,01,49,20.10
2016,08,20,01,50,20.10
2016,08,20,01,51,20.10
2016,08,20,01,52,20.10
2016,08,20,01,53,20.10
2016,08,20,01,54,20.10
2016,08,20,01,55,20.10
2016,08,20,01,56,20.00
2016,08,20,01,57,20.00
2016,08,20,01,58,20.00
2016,08,20,01,59,20.00
2016,08,20,02,00,20.00
2016,08,20,02,01,20.00
2016,08,20,02,02,20.10
2016,08,20,02,03,20.10
2016,08,20,02,04,20.10
2016,08,20,02,05,20.10
2016,08,20,02,06,20.10
2016,08,20,02,07,20.20
2016,08,20,02,08,20.20
2016,08,20,02,09,20.20
2016,08,20,02,10,20.30
2016,08,20,02,11,20.30
2016,08,20,02,12,20.30
2016,08,20,02,13,20.40
2016,08,20,02,14,20.40
2016,08,20,02,15,20.40
2016,08,20,02,16,20.50
2016,08,20,02,17,20.60
2016,08,20,02,18,20.70
2016,08,20,02,19,20.70
2016,08,20,02,20,20.80
2016,08,20,02,21,20.90
2016,08,20,02,22,21.00
2016,08,20,02,23,21.10
2016,08,20,02,24,21.10
2016,08,20,02,25,21.20
2016,08,20,02,26,21.20
2016,08,20,02,27,21.20
2016,08,20,02,28,21.20
2016,08,20,02,29,21.20
2016,08,20,02,30,21.10
2016,08,20,02,31,21.10
2016,08,20,02,32,21.00
2016,08,20,02,33,21.00
2016,08,20,02,34,20.90
2016,08,20,02,35,20.90
2016,08,20,02,36,20.80
2016,08,20,02,37,20.80
2016,08,20,02,38,20.80
2016,08,20,02,39,20.80
2016,08,20,02,40,20.70
2016,08,20,02,41,20.70
2016,08,20,02,42,20.70
2016,08,20,02,43,20.70
2016,08,20,02,44,20.60
2016,08,20,02,45,20.60
2016,08,20,02,46,20.60
2016,08,20,02,47,20.60
2016,08,20,02,48,20.50
2016,08,20,02,49,20.50
2016,08,20,02,50,20.50
2016,08,20,02,51,20.50
2016,08,20,02,52,20.50
2016,08,20,02,53,20.40
2016,08,20,02,54,20.40
2016,08,20,02,55,20.40
2016,08,20,02,56,20.30
2016,08,20,02,57,20.30
2016,08,20,02,58,20.30
2016,08,20,02,59,20.20
2016,08,20,03,00,20.20
2016,08,20,03,01,20.20
2016,08,20,03,02,20.20
2016,08,20,03,03,20.20
2016,08,20,03,04,20.10
2016,08,20,03,05,20.10
2016,08,20,03,06,20.10
2016,08,20,03,07,20.10
2016,08,20,03,08,20.10
2016,08,20,03,09,20.10
2016,08,20,03,10,20.10
2016,08,20,03,11,20.10
2016,08,20,03,12,20.20
2016,08,20,03,13,20.30
2016,08,20,03,14,20.40
2016,08,20,03,15,20.40
2016,08,20,03,16,20.50
2016,08,20,03,17,20.60
2016,08,20,03,18,20.60
2016,08,20,03,19,20.60
2016,08,20,03,20,20.60
2016,08,20,03,21,20.70
2016,08,20,03,22,20.60
2016,08,20,03,23,20.60
2016,08,20,03,24,20.60
2016,08,20,03,25,20.60
2016,08,20,03,26,20.60
2016,08,20,03,27,20.60
2016,08,20,03,28,20.60
2016,08,20,03,29,20.50
2016,08,20,03,30,20.50
2016,08,20,03,31,20.50
2016,08,20,03,32,20.40
2016,08,20,03,33,20.40
2016,08,20,03,34,20.40
2016,08,20,03,35,20.30
2016,08,20,03,36,20.30
2016,08,20,03,37,20.30
2016,08,20,03,38,20.20
2016,08,20,03,39,20.20
2016,08,20,03,40,20.20
2016,08,20,03,41,20.20
2016,08,20,03,42,20.30
2016,08,20,03,43,20.30
2016,08,20,03,44,20.30
2016,08,20,03,45,20.30
2016,08,20,03,46,20.30
2016,08,20,03,47,20.40
2016,08,20,03,48,20.40
2016,08,20,03,49,20.40
2016,08,20,03,50,20.40
2016,08,20,03,51,20.40
2016,08,20,03,52,20.40
2016,08,20,03,53,20.40
2016,08,20,03,54,20.40
2016,08,20,03,55,20.40
2016,08,20,03,56,20.40
2016,08,20,03,57,20.40
2016,08,20,03,58,20.30
2016,08,20,03,59,20.30
2016,08,20,04,00,20.30
2016,08,20,04,01,20.30
2016,08,20,04,02,20.30
2016,08,20,04,03,20.30
2016,08,20,04,04,20.40
2016,08,20,04,05,20.40
2016,08,20,04,06,20.40
2016,08,20,04,07,20.40
2016,08,20,04,08,20.40
2016,08,20,04,09,20.40
2016,08,20,04,10,20.40
2016,08,20,04,11,20.40
2016,08,20,04,12,20.40
2016,08,20,04,13,20.40
2016,08,20,04,14,20.30
2016,08,20,04,15,20.10
2016,08,20,04,16,19.90
2016,08,20,04,17,19.70
2016,08,20,04,18,19.50
2016,08,20,04,19,19.30
2016,08,20,04,20,19.10
2016,08,20,04,21,18.90
2016,08,20,04,22,18.80
2016,08,20,04,23,18.70
2016,08,20,04,24,18.60
2016,08,20,04,25,18.60
2016,08,20,04,26,18.50
2016,08,20,04,27,18.40
2016,08,20,04,28,18.40
2016,08,20,04,29,18.30
2016,08,20,04,30,18.30
2016,08,20,04,31,18.30
2016,08,20,04,32,18.30
2016,08,20,04,33,18.20
2016,08,20,04,34,18.20
2016,08,20,04,35,18.20
2016,08,20,04,36,18.20
2016,08,20,04,37,18.30
2016,08,20,04,38,18.30
2016,08,20,04,39,18.30
2016,08,20,04,40,18.40
2016,08,20,04,41,18.50
2016,08,20,04,42,18.60
2016,08,20,04,43,18.70
2016,08,20,04,44,18.80
2016,08,20,04,45,18.80
2016,08,20,04,46,18.90
2016,08,20,04,47,19.00
2016,08,20,04,48,19.00
2016,08,20,04,49,19.10
2016,08,20,04,50,19.10
2016,08,20,04,51,19.10
2016,08,20,04,52,19.10
2016,08,20,04,53,19.10
2016,08,20,04,54,19.20
2016,08,20,04,55,19.20
2016,08,20,04,56,19.20
2016,08,20,04,57,19.20
2016,08,20,04,58,19.20
2016,08,20,04,59,19.30
2016,08,20,05,00,19.30
2016,08,20,05,01,19.30
2016,08,20,05,02,19.30
2016,08,20,05,03,19.30
2016,08,20,05,04,19.30
2016,08,20,05,05,19.30
2016,08,20,05,06,19.30
2016,08,20,05,07,19.30
2016,08,20,05,08,19.30
2016,08,20,05,09,19.20
2016,08,20,05,10,19.20
2016,08,20,05,11,19.20
2016,08,20,05,12,19.10
2016,08,20,05,13,19.10
2016,08,20,05,14,19.00
2016,08,20,05,15,19.00
2016,08,20,05,16,18.90
2016,08,20,05,17,18.90
2016,08,20,05,18,18.90
2016,08,20,05,19,18.80
2016,08,20,05,20,18.80
2016,08,20,05,21,18.80
2016,08,20,05,22,18.80
2016,08,20,05,23,18.80
2016,08,20,05,24,18.80
2016,08,20,05,25,18.80
2016,08,20,05,26,18.80
2016,08,20,05,27,18.80
2016,08,20,05,28,18.80
2016,08,20,05,29,18.80
2016,08,20,05,30,18.80
2016,08,20,05,31,18.80
2016,08,20,05,32,18.80
2016,08,20,05,33,18.80
2016,08,20,05,34,18.80
2016,08,20,05,35,18.70
2016,08,20,05,36,18.70
2016,08,20,05,37,18.70
2016,08,20,05,38,18.70
2016,08,20,05,39,18.70
2016,08,20,05,40,18.70
2016,08,20,05,41,18.70
2016,08,20,05,42,18.70
2016,08,20,05,43,18.60
2016,08,20,05,44,18.60
2016,08,20,05,45,18.60
2016,08,20,05,46,18.60
2016,08,20,05,47,18.60
2016,08,20,05,48,18.50
2016,08,20,05,49,18.50
2016,08,20,05,50,18.50
2016,08,20,05,51,18.40
2016,08,20,05,52,18.40
2016,08,20,05,53,18.30
2016,08,20,05,54,18.30
2016,08,20,05,55,18.30
2016,08,20,05,56,18.30
2016,08,20,05,57,18.20
2016,08,20,05,58,18.20
2016,08,20,05,59,18.20
2016,08,20,06,00,18.20
2016,08,20,06,01,18.10
2016,08,20,06,02,18.20
2016,08,20,06,03,18.20
2016,08,20,06,04,18.20
2016,08,20,06,05,18.20
2016,08,20,06,06,18.30
2016,08,20,06,07,18.30
2016,08,20,06,08,18.30
2016,08,20,06,09,18.30
2016,08,20,06,10,18.30
2016,08,20,06,11,18.30
2016,08,20,06,12,18.20
2016,08,20,06,13,18.10
2016,08,20,06,14,18.00
2016,08,20,06,15,17.90
2016,08,20,06,16,17.80
2016,08,20,06,17,17.70
2016,08,20,06,18,17.70
2016,08,20,06,19,17.60
2016,08,20,06,20,17.50
2016,08,20,06,21,17.50
2016,08,20,06,22,17.50
2016,08,20,06,23,17.40
2016,08,20,06,24,17.40
2016,08,20,06,25,17.40
2016,08,20,06,26,17.40
2016,08,20,06,27,17.40
2016,08,20,06,28,17.40
2016,08,20,06,29,17.40
2016,08,20,06,30,17.40
2016,08,20,06,31,17.40
2016,08,20,06,32,17.40
2016,08,20,06,33,17.40
2016,08,20,06,34,17.40
2016,08,20,06,35,17.40
2016,08,20,06,36,17.50
2016,08,20,06,37,17.50
2016,08,20,06,38,17.50
2016,08,20,06,39,17.50
2016,08,20,06,40,17.60
2016,08,20,06,41,17.60
2016,08,20,06,42,17.60
2016,08,20,06,43,17.70
2016,08,20,06,44,17.70
2016,08,20,06,45,17.70
2016,08,20,06,46,17.70
2016,08,20,06,47,17.80
2016,08,20,06,48,17.80
2016,08,20,06,49,17.80
2016,08,20,06,50,17.80
2016,08,20,06,51,17.80
2016,08,20,06,52,17.80
2016,08,20,06,53,17.90
2016,08,20,06,54,17.90
2016,08,20,06,55,17.90
2016,08,20,06,56,17.90
2016,08,20,06,57,17.90
2016,08,20,06,58,18.00
2016,08,20,06,59,18.00
2016,08,20,07,00,18.10
2016,08,20,07,01,18.10
2016,08,20,07,02,18.20
2016,08,20,07,03,18.20
2016,08,20,07,04,18.30
2016,08,20,07,05,18.30
2016,08,20,07,06,18.30
2016,08,20,07,07,18.30
2016,08,20,07,08,18.40
2016,08,20,07,09,18.40
2016,08,20,07,10,18.50
2016,08,20,07,11,18.50
2016,08,20,07,12,18.60
2016,08,20,07,13,18.60
2016,08,20,07,14,18.70
2016,08,20,07,15,18.70
2016,08,20,07,16,18.80
2016,08,20,07,17,18.90
2016,08,20,07,18,18.90
2016,08,20,07,19,19.00
2016,08,20,07,20,19.00
2016,08,20,07,21,19.10
2016,08,20,07,22,19.10
2016,08,20,07,23,19.20
2016,08,20,07,24,19.20
2016,08,20,07,25,19.30
2016,08,20,07,26,19.30
2016,08,20,07,27,19.30
2016,08,20,07,28,19.30
2016,08,20,07,29,19.30
2016,08,20,07,30,19.30
2016,08,20,07,31,19.30
2016,08,20,07,32,19.30
2016,08,20,07,33,19.30
2016,08,20,07,34,19.30
2016,08,20,07,35,19.20
2016,08,20,07,36,19.20
2016,08,20,07,37,19.20
2016,08,20,07,38,19.20
2016,08,20,07,39,19.20
2016,08,20,07,40,19.20
2016,08,20,07,41,19.20
2016,08,20,07,42,19.20
2016,08,20,07,43,19.20
2016,08,20,07,44,19.20
2016,08,20,07,45,19.30
2016,08,20,07,46,19.30
2016,08,20,07,47,19.30
2016,08,20,07,48,19.30
2016,08,20,07,49,19.40
2016,08,20,07,50,19.40
2016,08,20,07,51,19.50
2016,08,20,07,52,19.50
2016,08,20,07,53,19.60
2016,08,20,07,54,19.70
2016,08,20,07,55,19.70
2016,08,20,07,56,19.80
2016,08,20,07,57,19.90
2016,08,20,07,58,20.00
2016,08,20,07,59,20.10
2016,08,20,08,00,20.20
2016,08,20,08,01,20.20
2016,08,20,08,02,20.30
2016,08,20,08,03,20.40
2016,08,20,08,04,20.40
2016,08,20,08,05,20.50
2016,08,20,08,06,20.60
2016,08,20,08,07,20.60
2016,08,20,08,08,20.60
2016,08,20,08,09,20.70
2016,08,20,08,10,20.70
2016,08,20,08,11,20.80
2016,08,20,08,12,20.90
2016,08,20,08,13,21.00
2016,08,20,08,14,21.00
2016,08,20,08,15,21.10
2016,08,20,08,16,21.20
2016,08,20,08,17,21.30
2016,08,20,08,18,21.40
2016,08,20,08,19,21.40
2016,08,20,08,20,21.50
2016,08,20,08,21,21.60
2016,08,20,08,22,21.70
2016,08,20,08,23,21.80
2016,08,20,08,24,21.80
2016,08,20,08,25,21.90
2016,08,20,08,26,22.00
2016,08,20,08,27,22.00
2016,08,20,08,28,22.10
2016,08,20,08,29,22.10
2016,08,20,08,30,22.10
2016,08,20,08,31,22.20
2016,08,20,08,32,22.20
2016,08,20,08,33,22.20
2016,08,20,08,34,22.20
2016,08,20,08,35,22.30
2016,08,20,08,36,22.30
2016,08,20,08,37,22.30
2016,08,20,08,38,22.40
2016,08,20,08,39,22.40
2016,08,20,08,40,22.40
2016,08,20,08,41,22.40
2016,08,20,08,42,22.30
2016,08,20,08,43,22.30
2016,08,20,08,44,22.30
2016,08,20,08,45,22.30
2016,08,20,08,46,22.40
2016,08,20,08,47,22.40
2016,08,20,08,48,22.40
2016,08,20,08,49,22.40
2016,08,20,08,50,22.40
2016,08,20,08,51,22.50
2016,08,20,08,52,22.50
2016,08,20,08,53,22.50
2016,08,20,08,54,22.40
2016,08,20,08,55,22.40
2016,08,20,08,56,22.30
2016,08,20,08,57,22.30
2016,08,20,08,58,22.20
2016,08,20,08,59,22.20
2016,08,20,09,00,22.00
2016,08,20,09,01,22.00
2016,08,20,09,02,21.90
2016,08,20,09,03,21.90
2016,08,20,09,04,21.80
2016,08,20,09,05,21.80
2016,08,20,09,06,21.90
2016,08,20,09,07,21.90
2016,08,20,09,08,21.90
2016,08,20,09,09,21.90
2016,08,20,09,10,21.90
2016,08,20,09,11,21.90
2016,08,20,09,12,22.00
2016,08,20,09,13,22.00
2016,08,20,09,14,22.00
2016,08,20,09,15,21.90
2016,08,20,09,16,21.90
2016,08,20,09,17,21.90
2016,08,20,09,18,21.90
2016,08,20,09,19,21.90
2016,08,20,09,20,22.00
2016,08,20,09,21,22.00
2016,08,20,09,22,22.00
2016,08,20,09,23,22.00
2016,08,20,09,24,22.00
2016,08,20,09,25,22.10
2016,08,20,09,26,22.00
2016,08,20,09,27,22.00
2016,08,20,09,28,22.00
2016,08,20,09,29,22.00
2016,08,20,09,30,22.00
2016,08,20,09,31,21.90
2016,08,20,09,32,21.90
2016,08,20,09,33,21.90
2016,08,20,09,34,21.90
2016,08,20,09,35,21.90
2016,08,20,09,36,21.90
2016,08,20,09,37,21.90
2016,08,20,09,38,21.90
2016,08,20,09,39,21.90
2016,08,20,09,40,21.90
2016,08,20,09,41,21.90
2016,08,20,09,42,21.80
2016,08,20,09,43,21.80
2016,08,20,09,44,21.80
2016,08,20,09,45,21.90
2016,08,20,09,46,21.90
2016,08,20,09,47,22.00
2016,08,20,09,48,22.00
2016,08,20,09,49,22.10
2016,08,20,09,50,22.10
2016,08,20,09,51,22.20
2016,08,20,09,52,22.20
2016,08,20,09,53,22.30
2016,08,20,09,54,22.30
2016,08,20,09,55,22.20
2016,08,20,09,56,22.20
2016,08,20,09,57,22.20
2016,08,20,09,58,22.20
2016,08,20,09,59,22.20
2016,08,20,10,00,22.20
2016,08,20,10,01,22.30
2016,08,20,10,02,22.30
2016,08,20,10,03,22.30
2016,08,20,10,04,22.30
2016,08,20,10,05,22.30
2016,08,20,10,06,22.30
2016,08,20,10,07,22.30
2016,08,20,10,08,22.30
2016,08,20,10,09,22.30
2016,08,20,10,10,22.30
2016,08,20,10,11,22.30
2016,08,20,10,12,22.20
2016,08,20,10,13,22.20
2016,08,20,10,14,22.10
2016,08,20,10,15,22.10
2016,08,20,10,16,22.00
2016,08,20,10,17,22.00
2016,08,20,10,18,21.90
2016,08,20,10,19,21.90
2016,08,20,10,20,21.90
2016,08,20,10,21,21.80
2016,08,20,10,22,21.80
2016,08,20,10,23,21.80
2016,08,20,10,24,21.80
2016,08,20,10,25,21.80
2016,08,20,10,26,21.80
2016,08,20,10,27,21.80
2016,08,20,10,28,21.80
2016,08,20,10,29,21.80
2016,08,20,10,30,21.80
2016,08,20,10,31,21.90
2016,08,20,10,32,21.90
2016,08,20,10,33,21.90
2016,08,20,10,34,22.00
2016,08,20,10,35,22.00
2016,08,20,10,36,22.00
2016,08,20,10,37,21.90
2016,08,20,10,38,21.90
2016,08,20,10,39,21.90
2016,08,20,10,40,21.90
2016,08,20,10,41,22.00
2016,08,20,10,42,22.00
2016,08,20,10,43,22.10
2016,08,20,10,44,22.20
2016,08,20,10,45,22.20
2016,08,20,10,46,22.20
2016,08,20,10,47,22.10
2016,08,20,10,48,22.10
2016,08,20,10,49,22.10
2016,08,20,10,50,22.10
2016,08,20,10,51,22.10
2016,08,20,10,52,22.10
2016,08,20,10,53,22.10
2016,08,20,10,54,22.20
2016,08,20,10,55,22.20
2016,08,20,10,56,22.20
2016,08,20,10,57,22.20
2016,08,20,10,58,22.20
2016,08,20,10,59,22.30
2016,08,20,11,00,22.30
2016,08,20,11,01,22.30
2016,08,20,11,02,22.30
2016,08,20,11,03,22.30
2016,08,20,11,04,22.30
2016,08,20,11,05,22.30
2016,08,20,11,06,22.40
2016,08,20,11,07,22.40
2016,08,20,11,08,22.50
2016,08,20,11,09,22.50
2016,08,20,11,10,22.60
2016,08,20,11,11,22.60
2016,08,20,11,12,22.70
2016,08,20,11,13,22.70
2016,08,20,11,14,22.80
2016,08,20,11,15,22.80
2016,08,20,11,16,22.80
2016,08,20,11,17,22.80
2016,08,20,11,18,22.80
2016,08,20,11,19,22.80
2016,08,20,11,20,22.90
2016,08,20,11,21,23.00
2016,08,20,11,22,23.10
2016,08,20,11,23,23.10
2016,08,20,11,24,23.10
2016,08,20,11,25,23.10
2016,08,20,11,26,23.10
2016,08,20,11,27,23.10
2016,08,20,11,28,23.20
2016,08,20,11,29,23.10
2016,08,20,11,30,23.00
2016,08,20,11,31,23.00
2016,08,20,11,32,23.00
2016,08,20,11,33,23.00
2016,08,20,11,34,23.00
2016,08,20,11,35,23.00
2016,08,20,11,36,23.00
2016,08,20,11,37,23.10
2016,08,20,11,38,23.10
2016,08,20,11,39,23.10
2016,08,20,11,40,23.10
2016,08,20,11,41,23.10
2016,08,20,11,42,23.10
2016,08,20,11,43,23.10
2016,08,20,11,44,23.10
2016,08,20,11,45,23.00
2016,08,20,11,46,23.00
2016,08,20,11,47,23.00
2016,08,20,11,48,22.90
2016,08,20,11,49,22.90
2016,08,20,11,50,22.80
2016,08,20,11,51,22.80
2016,08,20,11,52,22.90
2016,08,20,11,53,22.90
2016,08,20,11,54,22.90
2016,08,20,11,55,22.90
2016,08,20,11,56,22.90
2016,08,20,11,57,23.00
2016,08,20,11,58,23.10
2016,08,20,11,59,23.10
2016,08,20,12,00,23.10
2016,08,20,12,01,23.10
2016,08,20,12,02,23.10
2016,08,20,12,03,23.10
2016,08,20,12,04,23.00
2016,08,20,12,05,23.00
2016,08,20,12,06,23.00
2016,08,20,12,07,23.00
2016,08,20,12,08,23.00
2016,08,20,12,09,22.90
2016,08,20,12,10,22.90
2016,08,20,12,11,22.90
2016,08,20,12,12,22.90
2016,08,20,12,13,22.90
2016,08,20,12,14,23.00
2016,08,20,12,15,23.00
2016,08,20,12,16,23.00
2016,08,20,12,17,23.00
2016,08,20,12,18,23.00
2016,08,20,12,19,23.00
2016,08,20,12,20,23.00
2016,08,20,12,21,23.00
2016,08,20,12,22,23.10
2016,08,20,12,23,23.20
2016,08,20,12,24,23.20
2016,08,20,12,25,23.20
2016,08,20,12,26,23.20
2016,08,20,12,27,23.10
2016,08,20,12,28,23.10
2016,08,20,12,29,23.00
2016,08,20,12,30,23.00
2016,08,20,12,31,22.90
2016,08,20,12,32,22.90
2016,08,20,12,33,22.90
2016,08,20,12,34,22.90
2016,08,20,12,35,22.80
2016,08,20,12,36,22.80
2016,08,20,12,37,22.80
2016,08,20,12,38,22.70
2016,08,20,12,39,22.70
2016,08,20,12,40,22.70
2016,08,20,12,41,22.80
2016,08,20,12,42,22.80
2016,08,20,12,43,22.90
2016,08,20,12,44,22.90
2016,08,20,12,45,22.90
2016,08,20,12,46,22.80
2016,08,20,12,47,22.80
2016,08,20,12,48,22.80
2016,08,20,12,49,22.80
2016,08,20,12,50,22.80
2016,08,20,12,51,22.80
2016,08,20,12,52,22.80
2016,08,20,12,53,22.90
2016,08,20,12,54,22.90
2016,08,20,12,55,23.00
2016,08,20,12,56,23.00
2016,08,20,12,57,23.10
2016,08,20,12,58,23.10
2016,08,20,12,59,23.10
2016,08,20,13,00,23.20
2016,08,20,13,01,23.20
2016,08,20,13,02,23.20
2016,08,20,13,03,23.20
2016,08,20,13,04,23.20
2016,08,20,13,05,23.20
2016,08,20,13,06,23.20
2016,08,20,13,07,23.30
2016,08,20,13,08,23.30
2016,08,20,13,09,23.40
2016,08,20,13,10,23.50
2016,08,20,13,11,23.60
2016,08,20,13,12,23.60
2016,08,20,13,13,23.60
2016,08,20,13,14,23.60
2016,08,20,13,15,23.50
2016,08,20,13,16,23.50
2016,08,20,13,17,23.40
2016,08,20,13,18,23.40
2016,08,20,13,19,23.30
2016,08,20,13,20,23.30
2016,08,20,13,21,23.30
2016,08,20,13,22,23.30
2016,08,20,13,23,23.30
2016,08,20,13,24,23.20
2016,08,20,13,25,23.20
2016,08,20,13,26,23.20
2016,08,20,13,27,23.30
2016,08,20,13,28,23.30
2016,08,20,13,29,23.40
2016,08,20,13,30,23.40
2016,08,20,13,31,23.40
2016,08,20,13,32,23.40
2016,08,20,13,33,23.40
2016,08,20,13,34,23.40
2016,08,20,13,35,23.40
2016,08,20,13,36,23.30
2016,08,20,13,37,23.30
2016,08,20,13,38,23.30
2016,08,20,13,39,23.30
2016,08,20,13,40,23.30
2016,08,20,13,41,23.30
2016,08,20,13,42,23.30
2016,08,20,13,43,23.40
2016,08,20,13,44,23.40
2016,08,20,13,45,23.50
2016,08,20,13,46,23.60
2016,08,20,13,47,23.70
2016,08,20,13,48,23.70
2016,08,20,13,49,23.80
2016,08,20,13,50,23.80
2016,08,20,13,51,23.80
2016,08,20,13,52,23.80
2016,08,20,13,53,23.80
2016,08,20,13,54,23.80
2016,08,20,13,55,23.80
2016,08,20,13,56,23.90
2016,08,20,13,57,23.90
2016,08,20,13,58,24.00
2016,08,20,13,59,24.10
2016,08,20,14,00,24.10
2016,08,20,14,01,24.20
2016,08,20,14,02,24.20
2016,08,20,14,03,24.20
2016,08,20,14,04,24.30
2016,08,20,14,05,24.30
2016,08,20,14,06,24.40
2016,08,20,14,07,24.40
2016,08,20,14,08,24.50
2016,08,20,14,09,24.60
2016,08,20,14,10,24.70
2016,08,20,14,11,24.60
2016,08,20,14,12,24.60
2016,08,20,14,13,24.60
2016,08,20,14,14,24.70
2016,08,20,14,15,24.70
2016,08,20,14,16,24.70
2016,08,20,14,17,24.70
2016,08,20,14,18,24.60
2016,08,20,14,19,24.60
2016,08,20,14,20,24.60
2016,08,20,14,21,24.60
2016,08,20,14,22,24.60
2016,08,20,14,23,24.60
2016,08,20,14,24,24.60
2016,08,20,14,25,24.60
2016,08,20,14,26,24.60
2016,08,20,14,27,24.60
2016,08,20,14,28,24.60
2016,08,20,14,29,24.50
2016,08,20,14,30,24.50
2016,08,20,14,31,24.50
2016,08,20,14,32,24.50
2016,08,20,14,33,24.50
2016,08,20,14,34,24.50
2016,08,20,14,35,24.50
2016,08,20,14,36,24.50
2016,08,20,14,37,24.40
2016,08,20,14,38,24.40
2016,08,20,14,39,24.40
2016,08,20,14,40,24.30
2016,08,20,14,41,24.40
2016,08,20,14,42,24.40
2016,08,20,14,43,24.40
2016,08,20,14,44,24.40
2016,08,20,14,45,24.40
2016,08,20,14,46,24.40
2016,08,20,14,47,24.40
2016,08,20,14,48,24.40
2016,08,20,14,49,24.40
2016,08,20,14,50,24.40
2016,08,20,14,51,24.40
2016,08,20,14,52,24.40
2016,08,20,14,53,24.40
2016,08,20,14,54,24.40
2016,08,20,14,55,24.40
2016,08,20,14,56,24.40
2016,08,20,14,57,24.40
2016,08,20,14,58,24.40
2016,08,20,14,59,24.40
2016,08,20,15,00,24.40
2016,08,20,15,01,24.40
2016,08,20,15,02,24.40
2016,08,20,15,03,24.40
2016,08,20,15,04,24.50
2016,08,20,15,05,24.50
2016,08,20,15,06,24.60
2016,08,20,15,07,24.60
2016,08,20,15,08,24.60
2016,08,20,15,09,24.60
2016,08,20,15,10,24.70
2016,08,20,15,11,24.70
2016,08,20,15,12,24.70
2016,08,20,15,13,24.70
2016,08,20,15,14,24.70
2016,08,20,15,15,24.70
2016,08,20,15,16,24.70
2016,08,20,15,17,24.70
2016,08,20,15,18,24.80
2016,08,20,15,19,24.80
2016,08,20,15,20,24.80
2016,08,20,15,21,24.80
2016,08,20,15,22,24.80
2016,08,20,15,23,24.80
2016,08,20,15,24,24.80
2016,08,20,15,25,24.90
2016,08,20,15,26,24.90
2016,08,20,15,27,24.90
2016,08,20,15,28,24.90
2016,08,20,15,29,24.90
2016,08,20,15,30,25.00
2016,08,20,15,31,25.00
2016,08,20,15,32,25.00
2016,08,20,15,33,25.10
2016,08,20,15,34,25.10
2016,08,20,15,35,25.00
2016,08,20,15,36,25.00
2016,08,20,15,37,24.90
2016,08,20,15,38,24.90
2016,08,20,15,39,24.90
2016,08,20,15,40,24.90
2016,08,20,15,41,24.90
2016,08,20,15,42,24.80
2016,08,20,15,43,24.80
2016,08,20,15,44,24.80
2016,08,20,15,45,24.80
2016,08,20,15,46,24.80
2016,08,20,15,47,24.80
2016,08,20,15,48,24.80
2016,08,20,15,49,24.80
2016,08,20,15,50,24.80
2016,08,20,15,51,24.80
2016,08,20,15,52,24.90
2016,08,20,15,53,24.90
2016,08,20,15,54,24.80
2016,08,20,15,55,24.80
2016,08,20,15,56,24.80
2016,08,20,15,57,24.80
2016,08,20,15,58,24.80
2016,08,20,15,59,24.80
2016,08,20,16,00,24.80
2016,08,20,16,01,24.80
2016,08,20,16,02,24.90
2016,08,20,16,03,24.90
2016,08,20,16,04,25.00
2016,08,20,16,05,25.00
2016,08,20,16,06,25.00
2016,08,20,16,07,25.00
2016,08,20,16,08,25.10
2016,08,20,16,09,25.20
2016,08,20,16,10,25.20
2016,08,20,16,11,25.20
2016,08,20,16,12,25.20
2016,08,20,16,13,25.20
2016,08,20,16,14,25.30
2016,08,20,16,15,25.30
2016,08,20,16,16,25.30
2016,08,20,16,17,25.30
2016,08,20,16,18,25.30
2016,08,20,16,19,25.30
2016,08,20,16,20,25.30
2016,08,20,16,21,25.30
2016,08,20,16,22,25.30
2016,08,20,16,23,25.40
2016,08,20,16,24,25.40
2016,08,20,16,25,25.40
2016,08,20,16,26,25.40
2016,08,20,16,27,25.50
2016,08,20,16,28,25.50
2016,08,20,16,29,25.60
2016,08,20,16,30,25.70
2016,08,20,16,31,25.80
2016,08,20,16,32,25.80
2016,08,20,16,33,25.90
2016,08,20,16,34,26.00
2016,08,20,16,35,26.10
2016,08,20,16,36,26.10
2016,08,20,16,37,26.10
2016,08,20,16,38,26.10
2016,08,20,16,39,26.20
2016,08,20,16,40,26.20
2016,08,20,16,41,26.30
2016,08,20,16,42,26.30
2016,08,20,16,43,26.20
2016,08,20,16,44,26.20
2016,08,20,16,45,26.20
2016,08,20,16,46,26.20
2016,08,20,16,47,26.20
2016,08,20,16,48,26.20
2016,08,20,16,49,26.30
2016,08,20,16,50,26.30
2016,08,20,16,51,26.30
2016,08,20,16,52,26.30
2016,08,20,16,53,26.30
2016,08,20,16,54,26.30
2016,08,20,16,55,26.30
2016,08,20,16,56,26.30
2016,08,20,16,57,26.30
2016,08,20,16,58,26.30
2016,08,20,16,59,26.40
2016,08,20,17,00,26.40
2016,08,20,17,01,26.40
2016,08,20,17,02,26.50
2016,08,20,17,03,26.60
2016,08,20,17,04,26.60
2016,08,20,17,05,26.60
2016,08,20,17,06,26.60
2016,08,20,17,07,26.70
2016,08,20,17,08,26.80
2016,08,20,17,09,26.80
2016,08,20,17,10,26.80
2016,08,20,17,11,26.80
2016,08,20,17,12,26.80
2016,08,20,17,13,26.80
2016,08,20,17,14,26.80
2016,08,20,17,15,26.80
2016,08,20,17,16,26.80
2016,08,20,17,17,26.70
2016,08,20,17,18,26.70
2016,08,20,17,19,26.70